OPS 0100 DEB *, 4843

Orbit data source: Space-Track

OPS 0100 DEB *, 4843 is space debris in LEO originally from a launch on Fri, 14 Apr 1967 UTC launched from the Air Force Western Test Range (AFWTR). Debris objects in space refer to the collection of defunct objects orbiting the Earth. Examples of debris include non-operational satellites, rocket bodies, and fragments generated from explosions, collisions, or faulty payload assembly.

Loading next visibility...
OPS 0100 DEB * details
Identifier
4843, 1967-034E
Orbit
LEO
Last TLE update17 hours ago
Origin
Flag of USUSN NAVAIR (US)
ManufacturerUnknown
MissionSpacecraft
Bus & MotorUnknown
MassUnknown
Launch date (UTC)
1967-04-14 (58 years ago)
Launch vehicleUnknown
Launch site
Air Force Western Test Range (AFWTR)
Object type
Payload
Rocket body
Debris
Shape & HBRUnknown
Radar Cross SectionSmall (<0.1 m²)

Expand to show TLE details & history

TLE from 17 hours ago
0 OPS 0100 DEB *
1 04843U 67034E   25044.92508287  .00000233  00000-0  33835-3 0  9998
2 04843  90.3889 122.8290 0029491 109.6313 313.3626 13.52496282207645
Epoch: 2025-02-13T22:12Z
Definitive object data (Epoch: 2025-02-13T22:12:07.159Z)
Latitude62.83104°
Longitude4.8511°
Altitude1,058.928 km
Speed7.336 km/s
True Right ascension08h 08m 18s
True Declination62° 41' 48"
Sunlit
Object was in full shadow at TLE epoch
Visualization TLE readout
Latitude-20.16487°
Longitude-174.50981°
Altitude1,071.615 km
Speed7.315 km/s
Apparent Right ascension23h 07m 32s
Apparent Declination-55° 38' 11"
Sunlit
Object is in daylight
Visualization observer readout
Local Sidereal Time17:30:23
Azimuth139.993° SSE
Elevation-29.116°
Doppler factor1
Orbital elements
Apogee altitude1,082.071 km
Perigee altitude1,038.199 km
Semi-major axis7,438.272 km
Eccentricity0.0029491
Inclination90.3889°
RAAN122.829°
Arg. of periapsis109.6313°
True anomaly313.11629°
Mean anomaly313.3626°
Eccentric anomaly313.23951°
Mean motion3.38326 °/min
BSTAR0.00033835
Orbital period106.41 mins
Loading maneuver chart data...
Loading historical data...
Loading historical data...
Loading historical data...
Loading historical data...
Loading historical data...
Loading historical data...
Loading historical data...

OPS 0100 DEB * Visibility forecast

Observer location: undefined°, undefined

Span
Click to sort rows by Start time (UTC) header in descending order
Start Az.
Max El. time (UTC)
Max El. Az.
Max El.
End time (UTC)
End Az.
9 mins2025-02-14 16:15:20.817Z31.505° NE2025-02-14 16:20:20.817Z86.01° E22.574°2025-02-14 16:24:20.817Z129.305° SE
10 mins2025-02-14 18:02:20.817Z344.798° N2025-02-14 18:06:20.817Z284.766° WNW37.548°2025-02-14 18:12:20.817Z207.054° SW
8 mins2025-02-15 04:13:20.817Z118.132° SE2025-02-15 04:17:20.817Z71.348° E23.333°2025-02-15 04:21:20.817Z27.716° NE
10 mins2025-02-15 05:58:20.817Z203.45° SW2025-02-15 06:03:20.817Z283.451° WNW37.097°2025-02-15 06:08:20.817Z343.56° N
|